Flag for Norway Weather past 2 weeks in Stavanger, Norway

Now
50 °F

Scattered clouds.


Feels Like: 44 °F
Forecast: 46 / 50 °F
Wind: 18 mph from Northwest

Location: Stavanger / Sola

Current Time: May 26, 2015 at 12:45:57 PM

Latest Report: May 26, 2015 at 11:50 AM


Visibility: N/A

Pressure: 29.95 "Hg

Humidity: 71%

Dew point: 41 °F

Location of StavangerLocation

Historic Weather in Stavanger — Graph

°F

Stavanger temperature yesterday

Maximum temperature yesterday: 52 °F (at 7:20 PM)
Minimum temperature yesterday: 45 °F (at 5:50 AM)
Average temperature yesterday: 49 °F

Past Weeks' High & Low Weather Summary

 TemperatureHumidityPressure
High54 °F (May 12, 2:20 PM)100% (May 11, 5:20 PM)30.18 "Hg (May 11, 5:20 PM)
Low37 °F (May 15, 6:50 AM)47% (May 18, 5:20 PM)29.24 "Hg (May 19, 5:50 AM)
Average48 °F81%29.83 "Hg
* Reported May 11 11:20 AM — May 26 11:50 AM, Stavanger, Weather by CustomWeather, © 2015

Note: Actual official high and low records may vary slightly from our data, if they occured in-between our weather recording intervals... More about our weather records

Advertising

Stavanger weather history for previous 24 hours

 ConditionsComfort  
Time TempWeatherWind HumidityBarometerVisibility
11:50 AM
Tue, May 26
50 °FScattered clouds.18 mph71%29.95 "HgN/A
11:20 AM52 °FScattered clouds.17 mph72%29.92 "HgN/A
10:50 AM50 °FScattered clouds.16 mph76%29.92 "HgN/A
10:20 AM52 °FScattered clouds.14 mph72%29.92 "HgN/A
9:50 AM48 °FScattered clouds.15 mph76%29.92 "HgN/A
9:20 AM48 °FScattered clouds.13 mph76%29.92 "HgN/A
8:50 AM48 °FPartly sunny.15 mph76%29.92 "HgN/A
8:20 AM48 °FScattered clouds.15 mph76%29.92 "HgN/A
7:50 AM48 °FScattered clouds.10 mph82%29.92 "HgN/A
7:20 AM46 °FScattered clouds.15 mph87%29.92 "HgN/A
6:50 AM46 °FPartly sunny.15 mph87%29.89 "HgN/A
6:20 AM46 °FScattered clouds.13 mph87%29.89 "HgN/A
5:50 AM46 °FPartly sunny.16 mph87%29.89 "HgN/A
4:50 AM46 °FPassing clouds.9 mph87%29.89 "HgN/A
3:50 AM46 °FPassing clouds.12 mph87%29.89 "HgN/A
2:50 AM46 °FPassing clouds.12 mph87%29.89 "HgN/A
1:50 AM46 °FPassing clouds.12 mph87%29.89 "HgN/A
12:50 AM46 °FPassing clouds.9 mph87%29.89 "HgN/A
12:20 AM46 °FPassing clouds.10 mph87%29.89 "HgN/A
11:50 PM
Mon, May 25
46 °FPassing clouds.14 mph87%29.89 "HgN/A
11:20 PM48 °FPassing clouds.14 mph82%29.89 "HgN/A
10:50 PM48 °FPassing clouds.13 mph82%29.89 "HgN/A
10:20 PM48 °FPassing clouds.13 mph82%29.86 "HgN/A
9:50 PM50 °FScattered clouds.13 mph76%29.86 "HgN/A
9:20 PM50 °FScattered clouds.8 mph71%29.86 "HgN/A
8:50 PM50 °FPartly sunny.9 mph71%29.86 "HgN/A
8:20 PM50 °FPartly sunny.8 mph71%29.86 "HgN/A
7:50 PM50 °FBroken clouds.15 mph76%29.86 "HgN/A
7:20 PM52 °FScattered clouds.15 mph77%29.83 "HgN/A
6:50 PM50 °FScattered clouds.15 mph76%29.83 "HgN/A
6:20 PM50 °FScattered clouds.14 mph76%29.83 "HgN/A
5:50 PM50 °FScattered clouds.14 mph76%29.83 "HgN/A
5:20 PM50 °FBroken clouds.13 mph82%29.83 "HgN/A
4:50 PM50 °FBroken clouds.13 mph76%29.83 "HgN/A
4:20 PM50 °FBroken clouds.10 mph76%29.83 "HgN/A
3:50 PM50 °FBroken clouds.10 mph76%29.83 "HgN/A
3:20 PM50 °FSprinkles. Broken clouds.10 mph82%29.83 "HgN/A
2:50 PM50 °FBroken clouds.9 mph76%29.83 "HgN/A
2:20 PM50 °FBroken clouds.9 mph76%29.83 "HgN/A
1:50 PM50 °FBroken clouds.9 mph76%29.83 "HgN/A
1:20 PM50 °FScattered showers. Partly sunny.9 mph76%29.83 "HgN/A
12:50 PM50 °FBroken clouds.8 mph76%29.83 "HgN/A
12:20 PM48 °FBroken clouds.5 mph76%29.83 "HgN/A
Weather by CustomWeather, © 2015

See weather overviewHow to use our weather pages